Pen Duick Vi — FHHH — position and weather

sailwx.info

Track history (hours):
 
Tides and Currents Weather Stations Pressure Air Temp Water Temp Dewpoint Dewpoint Depression Visibility Wind Speed Wind Dir Waves Ship Positions

Pen Duick Vi

Last reported at 2017-Sep-29 13:56 UTC. Time now 2017-Nov-23 18:49 UTC.
Position N 47°44' W 003°22'.
Warning: this ship's position is 55 days out of date.

Length 23 m.

Type: Sailing vessel. MMSI: 227661000.

Date/timePositionNaut miles runAvg speedWind from/ knotsBaromVisibWave heightAir tempDewpointWater temp
2017-Sep-29 13:56N 47°44' W 003°22'0 1.1
2017-Sep-29 13:30N 47°44' W 003°22'0 0.7
2017-Sep-29 13:00N 47°43' W 003°22'3 6.6
2017-Sep-29 12:30N 47°41' W 003°25'2 0.8
2017-Sep-29 09:47N 47°39' W 003°27'0 0.4
2017-Sep-29 09:30N 47°39' W 003°27'2 3.6
2017-Sep-29 09:00N 47°40' W 003°24'3 6.4
2017-Sep-29 08:30N 47°43' W 003°22'1 2.2
2017-Sep-29 07:58N 47°44' W 003°22'0 0.0
2017-Sep-29 07:28N 47°44' W 003°22'0 0.0
2017-Sep-29 06:55N 47°44' W 003°22'0 0.0
2017-Sep-27 14:32N 47°44' W 003°22'0 0.0
2017-Sep-27 14:26N 47°44' W 003°22'1 2.5
2017-Sep-27 14:00N 47°43' W 003°22'3 6.2
2017-Sep-27 13:30N 47°41' W 003°26'0 0.6
2017-Sep-27 13:00N 47°41' W 003°25'3 6.6
2017-Sep-27 12:30N 47°43' W 003°22'0 0.8
2017-Sep-27 11:59N 47°44' W 003°22'0 0.0
2017-Sep-27 11:26N 47°44' W 003°22'0 0.0
2017-Sep-27 10:59N 47°44' W 003°22'0 0.0
2017-Sep-27 10:29N 47°44' W 003°22'0 0.8
2017-Sep-27 09:59N 47°44' W 003°22'1 1.5
2017-Sep-27 09:30N 47°44' W 003°21'3 6.4
2017-Sep-27 09:00N 47°41' W 003°22'2 3.1
2017-Sep-27 08:30N 47°39' W 003°22'4 7.6
2017-Sep-27 08:00N 47°43' W 003°22'1 1.6
2017-Sep-27 07:30N 47°44' W 003°22'0 0.0
2017-Sep-26 15:03N 47°44' W 003°22'0 0.0
2017-Sep-26 15:00N 47°44' W 003°22'1 2.4
2017-Sep-26 14:30N 47°43' W 003°22'2 3.5
2017-Sep-26 14:00N 47°41' W 003°24'1 2.8
2017-Sep-26 13:30N 47°40' W 003°25'2 3.7
2017-Sep-26 13:00N 47°39' W 003°27'0 0.2
2017-Sep-26 12:29N 47°39' W 003°27'0 0.0
2017-Sep-26 11:05N 47°39' W 003°27'0 0.1
2017-Sep-26 10:59N 47°39' W 003°27'0 0.0
2017-Sep-26 10:29N 47°39' W 003°27'0 0.0
2017-Sep-26 09:53N 47°39' W 003°27'1 2.5
2017-Sep-26 09:31N 47°39' W 003°26'1 2.4
2017-Sep-26 09:00N 47°40' W 003°25'3 6.1
2017-Sep-26 08:30N 47°43' W 003°22'1 2.0
2017-Sep-26 07:58N 47°44' W 003°22'0 0.0
2017-Sep-26 07:28N 47°44' W 003°22'0 0.0
2017-Sep-26 06:58N 47°44' W 003°22'0 0.0
2017-Sep-24 14:25N 47°44' W 003°22'0 0.6
2017-Sep-24 14:00N 47°44' W 003°22'0 0.0
2017-Sep-24 13:30N 47°44' W 003°22'0 0.0
2017-Sep-24 13:00N 47°44' W 003°22'0 0.2
2017-Sep-24 12:30N 47°44' W 003°22'0 0.6
2017-Sep-24 11:59N 47°43' W 003°22'2 4.9
2017-Sep-24 11:30N 47°41' W 003°24'2 1.5
2017-Sep-24 10:00N 47°41' W 003°27'3 6.5
2017-Sep-24 09:30N 47°42' W 003°22'2 3.6
2017-Sep-24 08:59N 47°44' W 003°22'0 0.0
2017-Sep-24 08:29N 47°44' W 003°22'0 0.0
2017-Sep-24 07:59N 47°44' W 003°22'  
2017-Sep-20 13:39N 47°44' W 003°22'0 0.0
2017-Sep-20 13:30N 47°44' W 003°22'2 3.6
2017-Sep-20 13:00N 47°42' W 003°22'3 5.3
2017-Sep-20 12:29N 47°40' W 003°24'2 3.0
2017-Sep-20 11:52N 47°39' W 003°27'0 0.0
2017-Sep-20 11:22N 47°39' W 003°27'0 0.0
2017-Sep-20 10:46N 47°39' W 003°27'0 0.0
2017-Sep-20 10:28N 47°39' W 003°27'0 0.0
2017-Sep-20 09:39N 47°39' W 003°27'0 1.6
2017-Sep-20 09:21N 47°39' W 003°26'0 0.5
2017-Sep-20 08:55N 47°39' W 003°26'1 2.9
2017-Sep-20 08:30N 47°40' W 003°26'4 8.0
2017-Sep-20 08:00N 47°43' W 003°22'1 1.4
2017-Sep-20 07:28N 47°44' W 003°22'  
Track history (hours):
 
Tides and Currents Weather Stations Pressure Air Temp Water Temp Dewpoint Dewpoint Depression Visibility Wind Speed Wind Dir Waves Ship Positions

Pen Duick Vi

Last reported at 2017-Sep-29 13:56 UTC. Time now 2017-Nov-23 18:49 UTC.
Position N 47°44' W 003°22'.
Warning: this ship's position is 55 days out of date.

Length 23 m.

Type: Sailing vessel. MMSI: 227661000.

Date/timePositionNaut miles runAvg speedWind from/ knotsBaromVisibWave heightAir tempDewpointWater temp
2017-Sep-29 13:56N 47°44' W 003°22'0 1.1
2017-Sep-29 13:30N 47°44' W 003°22'0 0.7
2017-Sep-29 13:00N 47°43' W 003°22'3 6.6
2017-Sep-29 12:30N 47°41' W 003°25'2 0.8
2017-Sep-29 09:47N 47°39' W 003°27'0 0.4
2017-Sep-29 09:30N 47°39' W 003°27'2 3.6
2017-Sep-29 09:00N 47°40' W 003°24'3 6.4
2017-Sep-29 08:30N 47°43' W 003°22'1 2.2
2017-Sep-29 07:58N 47°44' W 003°22'0 0.0
2017-Sep-29 07:28N 47°44' W 003°22'0 0.0
2017-Sep-29 06:55N 47°44' W 003°22'0 0.0
2017-Sep-27 14:32N 47°44' W 003°22'0 0.0
2017-Sep-27 14:26N 47°44' W 003°22'1 2.5
2017-Sep-27 14:00N 47°43' W 003°22'3 6.2
2017-Sep-27 13:30N 47°41' W 003°26'0 0.6
2017-Sep-27 13:00N 47°41' W 003°25'3 6.6
2017-Sep-27 12:30N 47°43' W 003°22'0 0.8
2017-Sep-27 11:59N 47°44' W 003°22'0 0.0
2017-Sep-27 11:26N 47°44' W 003°22'0 0.0
2017-Sep-27 10:59N 47°44' W 003°22'0 0.0
2017-Sep-27 10:29N 47°44' W 003°22'0 0.8
2017-Sep-27 09:59N 47°44' W 003°22'1 1.5
2017-Sep-27 09:30N 47°44' W 003°21'3 6.4
2017-Sep-27 09:00N 47°41' W 003°22'2 3.1
2017-Sep-27 08:30N 47°39' W 003°22'4 7.6
2017-Sep-27 08:00N 47°43' W 003°22'1 1.6
2017-Sep-27 07:30N 47°44' W 003°22'0 0.0
2017-Sep-26 15:03N 47°44' W 003°22'0 0.0
2017-Sep-26 15:00N 47°44' W 003°22'1 2.4
2017-Sep-26 14:30N 47°43' W 003°22'2 3.5
2017-Sep-26 14:00N 47°41' W 003°24'1 2.8
2017-Sep-26 13:30N 47°40' W 003°25'2 3.7
2017-Sep-26 13:00N 47°39' W 003°27'0 0.2
2017-Sep-26 12:29N 47°39' W 003°27'0 0.0
2017-Sep-26 11:05N 47°39' W 003°27'0 0.1
2017-Sep-26 10:59N 47°39' W 003°27'0 0.0
2017-Sep-26 10:29N 47°39' W 003°27'0 0.0
2017-Sep-26 09:53N 47°39' W 003°27'1 2.5
2017-Sep-26 09:31N 47°39' W 003°26'1 2.4
2017-Sep-26 09:00N 47°40' W 003°25'3 6.1
2017-Sep-26 08:30N 47°43' W 003°22'1 2.0
2017-Sep-26 07:58N 47°44' W 003°22'0 0.0
2017-Sep-26 07:28N 47°44' W 003°22'0 0.0
2017-Sep-26 06:58N 47°44' W 003°22'0 0.0
2017-Sep-24 14:25N 47°44' W 003°22'0 0.6
2017-Sep-24 14:00N 47°44' W 003°22'0 0.0
2017-Sep-24 13:30N 47°44' W 003°22'0 0.0
2017-Sep-24 13:00N 47°44' W 003°22'0 0.2
2017-Sep-24 12:30N 47°44' W 003°22'0 0.6
2017-Sep-24 11:59N 47°43' W 003°22'2 4.9
2017-Sep-24 11:30N 47°41' W 003°24'2 1.5
2017-Sep-24 10:00N 47°41' W 003°27'3 6.5
2017-Sep-24 09:30N 47°42' W 003°22'2 3.6
2017-Sep-24 08:59N 47°44' W 003°22'0 0.0
2017-Sep-24 08:29N 47°44' W 003°22'0 0.0
2017-Sep-24 07:59N 47°44' W 003°22'  
2017-Sep-20 13:39N 47°44' W 003°22'0 0.0
2017-Sep-20 13:30N 47°44' W 003°22'2 3.6
2017-Sep-20 13:00N 47°42' W 003°22'3 5.3
2017-Sep-20 12:29N 47°40' W 003°24'2 3.0
2017-Sep-20 11:52N 47°39' W 003°27'0 0.0
2017-Sep-20 11:22N 47°39' W 003°27'0 0.0
2017-Sep-20 10:46N 47°39' W 003°27'0 0.0
2017-Sep-20 10:28N 47°39' W 003°27'0 0.0
2017-Sep-20 09:39N 47°39' W 003°27'0 1.6
2017-Sep-20 09:21N 47°39' W 003°26'0 0.5
2017-Sep-20 08:55N 47°39' W 003°26'1 2.9
2017-Sep-20 08:30N 47°40' W 003°26'4 8.0
2017-Sep-20 08:00N 47°43' W 003°22'1 1.4
2017-Sep-20 07:28N 47°44' W 003°22'  

Dump ship's entire track history